Tampa, FL

5:15 AM EDT on September 25, 2017 (GMT -0400)
Tampa International

Weather History for KTPA - April, 2012

Change the Weather History Date:

Friday, April 6, 2012

  Actual Average Record
Temperature  
Mean Temperature 75 °F 70 °F  
Max Temperature 83 °F 79 °F 89 °F (1999)
Min Temperature 67 °F 61 °F 38 °F (1891)
Degree Days  
Heating Degree Days 0 1  
Month to date heating degree days 0 6  
Since 1 July heating degree days 208 533  
Cooling Degree Days 10 6  
Month to date cooling degree days 69 33  
Year to date cooling degree days 561 272  
Growing Degree Days 26 (Base 50)    
Moisture  
Dew Point 62 °F    
Average Humidity 57    
Maximum Humidity 79    
Minimum Humidity 34    
Precipitation  
Precipitation T in 0.07 in 2.05 in (2008)
Month to date precipitation 0.25 0.46  
Year to date precipitation 4.19 8.53  
Sea Level Pressure  
Sea Level Pressure 29.83 in    
Wind  
Wind Speed 13 mph (West)    
Max Wind Speed 20 mph    
Max Gust Speed 31 mph    
Visibility 10 miles    
Events      
T = Trace of Precipitation, MM = Missing Value Source: NWS Daily Summary

Daily Weather History Graph

Daily Weather History Graph

Search for Another Location

Airport or City:

Trip Planner

Search our weather history database for the weather conditions in past years. The results will help you decide how hot, cold, wet, or windy it might be!

Date:

Astronomy

Apr. 06, 2012 Rise Set
Actual Time 7:14 AM EDT 7:50 PM EDT
Civil Twilight 6:50 AM EDT 8:14 PM EDT
Nautical Twilight 6:22 AM EDT 8:42 PM EDT
Astronomical Twilight 5:54 AM EDT 9:10 PM EDT
Moon 8:02 PM EDT (4/6) 6:48 AM EDT (4/6)
Length of Visible Light 13h 23m
Length of Day
12h 36m
Full, 100% of the Moon is Illuminated
Apr 6
Full
Apr 6
Full
Apr 13
Last Quarter
Apr 21
New
Apr 29
First Quarter

Hourly Weather History & Observations

Time (EDT) Temp. Heat Index Dew Point Humidity Pressure Visibility Wind Dir Wind Speed Gust Speed Precip Events Conditions
12:53 AM 75.0 °F - 64.9 °F 71% 29.81 in 10.0 mi SW 10.4 mph - N/A   Partly Cloudy
1:53 AM 75.0 °F - 64.0 °F 69% 29.79 in 10.0 mi SW 9.2 mph - N/A   Clear
2:53 AM 75.0 °F - 66.0 °F 73% 29.78 in 10.0 mi WSW 10.4 mph - N/A   Partly Cloudy
3:53 AM 75.0 °F - 66.0 °F 73% 29.77 in 10.0 mi WSW 15.0 mph - N/A   Scattered Clouds
4:16 AM 75.2 °F - 66.2 °F 73% 29.77 in 10.0 mi West 11.5 mph 19.6 mph N/A   Mostly Cloudy
4:47 AM 75.2 °F - 66.2 °F 73% 29.77 in 10.0 mi West 10.4 mph - N/A   Partly Cloudy
4:53 AM 75.0 °F - 66.9 °F 76% 29.76 in 10.0 mi West 11.5 mph - N/A   Partly Cloudy
5:24 AM 75.2 °F - 66.2 °F 73% 29.76 in 10.0 mi WSW 11.5 mph - N/A   Mostly Cloudy
5:53 AM 75.0 °F - 68.0 °F 79% 29.76 in 10.0 mi West 11.5 mph - N/A   Mostly Cloudy
6:07 AM 75.2 °F - 68.0 °F 78% 29.77 in 10.0 mi WSW 16.1 mph 21.9 mph N/A   Scattered Clouds
6:53 AM 75.0 °F - 66.9 °F 76% 29.79 in 10.0 mi West 15.0 mph 21.9 mph N/A   Partly Cloudy
7:53 AM 75.9 °F - 66.9 °F 74% 29.81 in 10.0 mi West 12.7 mph 24.2 mph N/A   Scattered Clouds
8:53 AM 75.9 °F - 66.0 °F 71% 29.83 in 10.0 mi West 19.6 mph 26.5 mph N/A   Scattered Clouds
9:53 AM 78.1 °F - 66.0 °F 66% 29.84 in 10.0 mi West 16.1 mph 23.0 mph N/A   Mostly Cloudy
10:53 AM 80.1 °F 82.1 °F 66.0 °F 62% 29.85 in 10.0 mi West 16.1 mph 24.2 mph N/A   Scattered Clouds
11:53 AM 80.1 °F 81.9 °F 64.9 °F 60% 29.86 in 10.0 mi WNW 12.7 mph 23.0 mph 0.00 in   Scattered Clouds
12:53 PM 81.0 °F 81.7 °F 61.0 °F 50% 29.84 in 10.0 mi West 15.0 mph 21.9 mph N/A   Scattered Clouds
1:53 PM 82.0 °F 81.6 °F 55.9 °F 41% 29.84 in 10.0 mi West 17.3 mph 25.3 mph N/A   Scattered Clouds
2:53 PM 82.0 °F - 51.1 °F 34% 29.83 in 10.0 mi West 16.1 mph 25.3 mph N/A   Scattered Clouds
3:53 PM 80.1 °F 79.9 °F 53.1 °F 39% 29.82 in 10.0 mi NW 17.3 mph 23.0 mph N/A   Partly Cloudy
4:53 PM 79.0 °F - 52.0 °F 39% 29.83 in 10.0 mi WNW 16.1 mph - N/A   Partly Cloudy
5:53 PM 78.8 °F - 51.8 °F 39% 29.84 in 10.0 mi WNW 11.5 mph - N/A   Partly Cloudy
6:53 PM 75.0 °F - 52.0 °F 44% 29.86 in 10.0 mi NW 11.5 mph - N/A   Partly Cloudy
7:53 PM 71.1 °F - 57.0 °F 61% 29.87 in 10.0 mi NW 10.4 mph 17.3 mph N/A   Partly Cloudy
8:53 PM 70.0 °F - 57.9 °F 65% 29.90 in 10.0 mi NW 5.8 mph - N/A   Partly Cloudy
9:53 PM 71.1 °F - 59.0 °F 66% 29.93 in 10.0 mi Variable 3.5 mph - N/A   Partly Cloudy
10:53 PM 71.1 °F - 59.0 °F 66% 29.96 in 10.0 mi NE 12.7 mph 19.6 mph N/A   Mostly Cloudy
11:53 PM 69.1 °F - 57.0 °F 65% 29.99 in 10.0 mi NE 9.2 mph 18.4 mph N/A   Scattered Clouds